Weather History for KEDE - October, 2012

Change the Weather History Date:

Tuesday, October 30, 2012

  Actual Average Record
Temperature  
Mean Temperature 46 °F -  
Max Temperature 50 °F 67 °F 85 °F (1935)
Min Temperature 42 °F 47 °F 29 °F (1965)
Degree Days  
Heating Degree Days 19    
Moisture  
Dew Point 39 °F    
Average Humidity 74    
Maximum Humidity 93    
Minimum Humidity 62    
Precipitation  
Precipitation 0.00 in - - ()
Sea Level Pressure  
Sea Level Pressure 29.42 in    
Wind  
Wind Speed 18 mph (WSW)    
Max Wind Speed 26 mph    
Max Gust Speed 33 mph    
Visibility 10 miles    
Events      
Averages and records for this station are not official NWS values.
T = Trace of Precipitation, MM = Missing Value Source: NWS Daily Summary

Daily Weather History Graph

Daily Weather History Graph

Search for Another Location

Airport or City:

Trip Planner

Search our weather history database for the weather conditions in past years. The results will help you decide how hot, cold, wet, or windy it might be!

Date:

Astronomy

Oct. 30, 2012 Rise Set
Actual Time 7:27 AM EDT 6:11 PM EDT
Civil Twilight 7:00 AM EDT 6:38 PM EDT
Nautical Twilight 6:30 AM EDT 7:08 PM EDT
Astronomical Twilight 6:00 AM EDT 7:38 PM EDT
Moon 6:42 PM EDT (10/30) 8:09 AM EDT (10/30)
Length of Visible Light 11h 37m
Length of Day
10h 44m
Full, 99% of the Moon is Illuminated
Oct 30
Full
Nov 6
Last Quarter
Nov 13
New
Nov 20
First Quarter
Nov 28
Full

Hourly Weather History & Observations

Time (EDT) Temp. Windchill Dew Point Humidity Pressure Visibility Wind Dir Wind Speed Gust Speed Precip Events Conditions
12:15 AM 42.8 °F 33.3 °F 41.0 °F 93% 29.24 in 7.0 mi WSW 24.2 mph 29.9 mph N/A   Light Drizzle
12:35 AM 44.6 °F 36.6 °F 41.0 °F 87% 29.24 in 7.0 mi WSW 19.6 mph 31.1 mph N/A   Light Drizzle
12:55 AM 42.8 °F 34.0 °F 41.0 °F 93% 29.24 in 10.0 mi West 20.7 mph 32.2 mph N/A   Light Drizzle
1:15 AM 44.6 °F 36.9 °F 41.0 °F 87% 29.24 in 10.0 mi WSW 18.4 mph 29.9 mph N/A   Overcast
1:35 AM 44.6 °F 36.6 °F 41.0 °F 87% 29.24 in 10.0 mi WSW 19.6 mph 27.6 mph N/A   Light Drizzle
1:55 AM 44.6 °F 35.7 °F 41.0 °F 87% 29.24 in 10.0 mi WSW 24.2 mph 31.1 mph N/A   Overcast
2:15 AM 44.6 °F 35.9 °F 41.0 °F 87% 29.24 in 10.0 mi WSW 23.0 mph 32.2 mph N/A   Overcast
2:35 AM 44.6 °F 35.5 °F 41.0 °F 87% 29.25 in 10.0 mi SW 25.3 mph 32.2 mph N/A   Overcast
2:55 AM 44.6 °F 36.6 °F 41.0 °F 87% 29.26 in 10.0 mi WSW 19.6 mph 28.8 mph N/A   Overcast
3:15 AM 44.6 °F 36.9 °F 41.0 °F 87% 29.26 in 10.0 mi WSW 18.4 mph 29.9 mph N/A   Light Drizzle
3:35 AM 44.6 °F 37.2 °F 41.0 °F 87% 29.26 in 7.0 mi SW 17.3 mph 28.8 mph N/A   Overcast
3:55 AM 44.6 °F 36.9 °F 41.0 °F 87% 29.27 in 10.0 mi WSW 18.4 mph 28.8 mph N/A   Overcast
4:15 AM 44.6 °F 36.9 °F 41.0 °F 87% 29.27 in 10.0 mi WSW 18.4 mph 28.8 mph N/A   Overcast
4:35 AM 44.6 °F 36.4 °F 41.0 °F 87% 29.27 in 10.0 mi SW 20.7 mph 28.8 mph N/A   Overcast
4:55 AM 44.6 °F 36.1 °F 39.2 °F 81% 29.28 in 10.0 mi WSW 21.9 mph 31.1 mph N/A   Overcast
5:15 AM 44.6 °F 35.9 °F 39.2 °F 81% 29.29 in 10.0 mi SW 23.0 mph 31.1 mph N/A   Overcast
5:35 AM 44.6 °F 36.4 °F 37.4 °F 76% 29.30 in 10.0 mi SW 20.7 mph 33.4 mph N/A   Overcast
5:55 AM 44.6 °F 36.1 °F 39.2 °F 81% 29.31 in 10.0 mi WSW 21.9 mph 27.6 mph N/A   Overcast
6:15 AM 44.6 °F 37.2 °F 37.4 °F 76% 29.32 in 10.0 mi SW 17.3 mph 27.6 mph N/A   Overcast
6:35 AM 44.6 °F 36.4 °F 39.2 °F 81% 29.33 in 10.0 mi SW 20.7 mph 31.1 mph N/A   Overcast
6:55 AM 44.6 °F 36.1 °F 37.4 °F 76% 29.34 in 10.0 mi SW 21.9 mph 31.1 mph N/A   Overcast
7:15 AM 44.6 °F 36.1 °F 37.4 °F 76% 29.35 in 10.0 mi SW 21.9 mph 31.1 mph N/A   Overcast
7:35 AM 44.6 °F 36.4 °F 37.4 °F 76% 29.36 in 10.0 mi SW 20.7 mph 31.1 mph N/A   Overcast
7:55 AM 44.6 °F 36.1 °F 37.4 °F 76% 29.37 in 10.0 mi WSW 21.9 mph 29.9 mph N/A   Overcast
8:15 AM 44.6 °F 37.4 °F 37.4 °F 76% 29.38 in 10.0 mi SW 16.1 mph 28.8 mph N/A   Overcast
8:35 AM 44.6 °F 35.3 °F 37.4 °F 76% 29.39 in 10.0 mi SW 26.5 mph 31.1 mph N/A   Overcast
8:55 AM 44.6 °F 35.9 °F 37.4 °F 76% 29.40 in 10.0 mi SW 23.0 mph 29.9 mph N/A   Overcast
9:15 AM 46.4 °F 39.0 °F 37.4 °F 71% 29.41 in 10.0 mi SW 19.6 mph 26.5 mph N/A   Overcast
9:55 AM 46.4 °F 39.5 °F 37.4 °F 71% 29.42 in 10.0 mi SW 17.3 mph 29.9 mph N/A   Mostly Cloudy
10:15 AM 46.4 °F 39.2 °F 37.4 °F 71% 29.43 in 10.0 mi WSW 18.4 mph 26.5 mph N/A   Overcast
10:35 AM 46.4 °F 39.5 °F 37.4 °F 71% 29.44 in 10.0 mi SW 17.3 mph 27.6 mph N/A   Overcast
10:55 AM 46.4 °F 39.2 °F 37.4 °F 71% 29.44 in 10.0 mi WSW 18.4 mph 26.5 mph N/A   Overcast
11:15 AM 46.4 °F 39.0 °F 37.4 °F 71% 29.45 in 10.0 mi WSW 19.6 mph 28.8 mph N/A   Overcast
11:35 AM 46.4 °F 39.8 °F 37.4 °F 71% 29.45 in 10.0 mi WSW 16.1 mph 23.0 mph N/A   Overcast
11:55 AM 46.4 °F 39.8 °F 37.4 °F 71% 29.45 in 10.0 mi WSW 16.1 mph 21.9 mph N/A   Overcast
12:15 PM 46.4 °F 40.1 °F 37.4 °F 71% 29.46 in 10.0 mi West 15.0 mph 24.2 mph N/A   Overcast
12:35 PM 48.2 °F - 37.4 °F 66% 29.46 in 10.0 mi WSW 18.4 mph - N/A   Overcast
12:55 PM 46.4 °F 40.4 °F 37.4 °F 71% 29.45 in 10.0 mi WSW 13.8 mph 26.5 mph N/A   Light Drizzle
1:15 PM 48.2 °F - 37.4 °F 66% 29.45 in 10.0 mi WSW 15.0 mph 24.2 mph N/A   Overcast
1:35 PM 46.4 °F 40.7 °F 37.4 °F 71% 29.46 in 10.0 mi WSW 12.7 mph 24.2 mph N/A   Overcast
1:55 PM 48.2 °F - 37.4 °F 66% 29.45 in 10.0 mi SW 17.3 mph 25.3 mph N/A   Mostly Cloudy
2:15 PM 46.4 °F 39.5 °F 37.4 °F 71% 29.45 in 10.0 mi WSW 17.3 mph 23.0 mph N/A   Scattered Clouds
2:35 PM 46.4 °F 40.4 °F 37.4 °F 71% 29.45 in 10.0 mi SW 13.8 mph 19.6 mph N/A   Scattered Clouds
2:55 PM 46.4 °F 40.4 °F 37.4 °F 71% 29.45 in 10.0 mi WSW 13.8 mph 23.0 mph N/A   Mostly Cloudy
3:15 PM 48.2 °F - 37.4 °F 66% 29.45 in 10.0 mi SW 13.8 mph 18.4 mph N/A   Scattered Clouds
3:35 PM 48.2 °F - 37.4 °F 66% 29.45 in 10.0 mi WSW 11.5 mph 18.4 mph N/A   Scattered Clouds
3:55 PM 50.0 °F - 37.4 °F 62% 29.46 in 10.0 mi SW 11.5 mph 17.3 mph N/A   Scattered Clouds
4:15 PM 50.0 °F - 37.4 °F 62% 29.46 in 10.0 mi WSW 16.1 mph 23.0 mph N/A   Scattered Clouds
4:35 PM 50.0 °F - 37.4 °F 62% 29.47 in 10.0 mi WSW 13.8 mph - N/A   Mostly Cloudy
4:55 PM 50.0 °F - 39.2 °F 66% 29.48 in 10.0 mi WSW 11.5 mph 17.3 mph N/A   Mostly Cloudy
5:15 PM 50.0 °F - 39.2 °F 66% 29.49 in 10.0 mi West 11.5 mph - N/A   Mostly Cloudy
5:35 PM 48.2 °F - 39.2 °F 71% 29.50 in 10.0 mi WSW 10.4 mph - N/A   Overcast
5:55 PM 48.2 °F - 39.2 °F 71% 29.51 in 10.0 mi West 10.4 mph 17.3 mph N/A   Overcast
6:15 PM 48.2 °F - 41.0 °F 76% 29.52 in 10.0 mi West 6.9 mph - N/A   Overcast
6:35 PM 48.2 °F - 41.0 °F 76% 29.53 in 10.0 mi West 5.8 mph - N/A   Overcast
6:55 PM 48.2 °F - 39.2 °F 71% 29.53 in 10.0 mi West 10.4 mph - N/A   Overcast
7:15 PM 48.2 °F - 39.2 °F 71% 29.54 in 10.0 mi WSW 12.7 mph 18.4 mph N/A   Overcast
7:35 PM 48.2 °F - 37.4 °F 66% 29.55 in 10.0 mi SW 12.7 mph 18.4 mph N/A   Overcast
7:55 PM 48.2 °F - 41.0 °F 76% 29.55 in 10.0 mi SW 10.4 mph - N/A   Overcast
8:15 PM 48.2 °F - 41.0 °F 76% 29.55 in 10.0 mi SSW 12.7 mph 19.6 mph N/A   Overcast
8:35 PM 48.2 °F - 41.0 °F 76% 29.56 in 10.0 mi SW 12.7 mph 18.4 mph N/A   Overcast
8:55 PM 48.2 °F - 41.0 °F 76% 29.56 in 10.0 mi SW 8.1 mph 16.1 mph N/A   Overcast
9:15 PM 48.2 °F - 41.0 °F 76% 29.57 in 10.0 mi SW 8.1 mph - N/A   Overcast
9:35 PM 50.0 °F - 39.2 °F 66% 29.58 in 10.0 mi WSW 12.7 mph 17.3 mph N/A   Scattered Clouds
9:55 PM 50.0 °F - 37.4 °F 62% 29.58 in 10.0 mi WSW 11.5 mph 17.3 mph N/A   Clear
10:15 PM 50.0 °F - 37.4 °F 62% 29.59 in 10.0 mi WSW 10.4 mph 17.3 mph N/A   Clear
10:35 PM 50.0 °F - 37.4 °F 62% 29.59 in 10.0 mi WSW 10.4 mph 17.3 mph N/A   Clear
10:55 PM 50.0 °F - 37.4 °F 62% 29.59 in 10.0 mi WSW 8.1 mph - N/A   Clear
11:15 PM 50.0 °F - 37.4 °F 62% 29.58 in 10.0 mi WSW 10.4 mph - N/A   Clear
11:35 PM 50.0 °F - 37.4 °F 62% 29.58 in 10.0 mi WSW 11.5 mph - N/A   Clear
11:55 PM 50.0 °F - 37.4 °F 62% 29.58 in 10.0 mi WSW 11.5 mph - N/A   Clear